STARLINK-2164, 47750

Orbit data source: Space-Track

STARLINK-2164, 47750 is a payload satellite owned by SpaceX/Seattle (US) in LEO that was launched on Thu, 04 Mar 2021 UTC via an FALCON 9 launch vehicle from the Air Force Eastern Test Range (AFETR). Payload-class satellites include a variety of spacecraft equipped with specific instruments for various scientific and technological missions. These include communications satellites like Starlink; space stations such as the ISS; scientific satellites like the Hubble; Earth observation satellites from companies like Planet Labs, Umbra, and HawkEye 360; GPS; miniature CubeSats for education and research; and military/defense satellites.

Loading next visibility...
Identifier
47750, 2021-017AE
Orbit
LEO
Country
Flag of USUS
Related business
Manufacturer
SpaceX/Seattle
Mission
Operational Commercial Communications
Bus & Motor
STARLINK, Unknown motor
Mass
260 kg wet, ~248 kg dry
Launch date (UTC)
2021-03-04 (5 years ago)
Launch vehicle
FALCON 9
Launch site
Air Force Eastern Test Range (AFETR)
Object type
Payload
Rocket body
Debris
Shape & HBR
Box + 1 Pan, 10.1 m
Radar Cross Section
13.562 m², Large (>1 m²)

Expand to show TLE details & history
Last TLE update: 11 hours ago

TLE from 11 hours ago
0 STARLINK-2164
1 47750U 21017AE  25347.00475648 -.00002413  00000-0 -14318-3 0  9991
2 47750  53.0529 230.7603 0001668  90.3396 269.7784 15.06383838264809
Epoch: 2025-12-13T00:06Z
TLE epoch observation values (Epoch: 2025-12-13T00:06:50.959Z)
Latitude
-0.00005°
Longitude
147.10969°
Altitude
548.145 km
Speed
7.589 km/s
True Right ascension
15h 23m 02s
True Declination
0° 00' 00"
Sunlit
Object was in daylight at epoch
Visualization orbit readout
Latitude
Unknown
Longitude
Unknown
Altitude
Unknown
Speed
Unknown
Apparent Right ascension
Unknown
Apparent Declination
Unknown
Sunlit
N/A
Visualization observer readout
Local Sidereal Time
09:17:37
Azimuth
Unknown
Elevation
Unknown
Doppler factor
Unknown
Orbital elements
Apogee altitude
548.687 km
Perigee altitude
546.377 km
Semi-major axis
6,925.669 km
Eccentricity
0.00017
Inclination
53.0529°
RAAN
230.7603°
Arg. of periapsis
90.3396°
True anomaly
269.75929°
Mean anomaly
269.7784°
Eccentric anomaly
269.76884°
Mean motion
3.76574 °/min
Orbital period
95.6 mins
BSTAR
-0.00014318
Loading maneuver chart data...
Computing Atmospheric mass density...
Loading historical data...
Loading historical data...
Loading historical data...
Loading historical data...
Loading historical data...
Loading historical data...
Loading historical data...

Documentation

Showing up to 5 results
|